RH
77 75 52 87 75 89 82 81 61 54 54 48 42 47 46 44 38 33 38 36 35 34 32 31 32 31 27 23 22 20 24 31 20 17 18 16 15 14 12 14 25 31 34 35 38
73 77 57 46 74 99 92 90 78 51 55 53 48 42 43 43 41 41 40 39 37 36 36 35 34 34 34 28 24 25 33 38 25 24 22 21 20 19 18 15 12 15 26 31 35
77 77 65 45 98 97 95 87 87 51 72 61 55 52 47 45 40 44 42 40 38 34 29 29 30 30 32 33 30 29 32 26 26 26 26 26 26 26 24 23 20 16 16 16 22
64 81 83 47 99 99 100 98 91 79 83 80 70 66 60 58 46 41 36 34 30 29 32 34 36 38 36 33 31 32 31 30 29 28 27 27 26 24 24 22 23 22 22 20 17
74 84 93 96 99 99 98 98 80 67 69 71 72 65 58 46 38 33 37 33 35 36 36 33 30 30 32 31 30 29 28 28 26 26 25 24 23 24 19 20 22 22 22 22 20
74 64 82 98 99 97 97 82 79 70 70 82 71 64 54 44 41 40 38 41 39 35 31 30 31 30 31 31 31 30 30 29 27 26 24 22 19 19 14 16 15 16 18 19 21
80 70 60 80 92 97 90 93 95 89 89 64 51 52 53 48 49 48 41 40 38 36 33 32 32 31 31 31 29 29 27 27 25 24 23 22 14 14 15 15 15 16 16 17 18
78 99 85 71 93 98 100 97 97 82 62 73 69 58 54 53 50 44 42 42 40 38 37 37 36 34 33 33 33 33 32 34 29 28 24 22 15 16 14 13 13 11 11 11 11
82 78 80 82 94 99 93 85 74 76 75 61 57 60 54 50 48 46 45 44 44 44 42 41 38 38 37 37 38 33 54 30 20 15 12 13 11 11 10 9 7 7 7 6 6
68 59 75 89 86 82 82 83 74 76 76 71 65 48 53 46 39 36 34 31 32 33 33 34 35 36 35 34 62 42 39 31 14 20 22 20 8 17 14 14 15 17 18 20 21
55 50 67 86 86 80 80 74 71 68 63 48 39 34 35 34 31 28 24 21 21 22 26 32 32 30 25 22 21 20 22 31 37 45 33 31 16 23 26 20 21 22 28 31 33
55 62 72 71 72 68 68 64 57 43 29 27 29 25 24 29 36 38 38 38 37 23 23 25 26 26 28 32 41 52 60 65 59 61 63 54 25 26 30 30 32 32 38 48 50
54 57 64 63 60 62 52 32 28 25 26 28 28 33 36 38 38 38 39 39 41 43 40 32 43 52 59 64 64 73 80 85 91 76 67 66 35 24 33 40 42 47 51 51 52
47 47 58 57 62 56 35 33 24 25 28 36 34 36 36 38 35 33 35 38 43 48 42 49 55 63 67 74 80 82 79 81 87 98 90 81 70 28 36 41 48 50 53 62 59
46 46 47 58 54 51 44 35 25 23 53 29 33 30 29 30 32 34 37 41 41 51 54 53 62 70 80 88 90 90 82 85 90 98 99 92 93 46 44 49 51 59 64 62 67
43 30 32 40 34 32 31 24 18 17 51 28 29 27 26 27 29 32 41 44 44 52 60 55 70 75 81 82 81 78 75 77 67 71 87 69 70 56 49 57 64 72 74 73 79
16 12 16 22 26 23 20 18 18 30 22 24 24 26 26 26 26 30 40 48 49 51 58 62 70 70 75 77 81 75 74 84 82 80 60 61 78 44 51 71 90 66 61 73 83
10 10 12 15 17 15 15 14 14 21 24 21 23 26 22 25 27 32 35 44 51 54 58 63 77 68 75 80 85 80 80 91 87 75 69 82 84 50 68 89 99 93 88 82 88
9 8 9 10 10 10 11 10 16 18 16 19 23 29 26 22 29 32 36 40 45 55 59 60 60 67 68 74 78 81 98 95 99 94 91 75 53 64 79 84 93 90 96 98 99
9 8 7 7 7 7 9 9 14 16 18 21 23 27 26 23 24 34 42 42 44 48 54 60 56 58 62 67 71 79 86 95 94 86 77 63 77 88 91 94 100 96 95 97 99
8 8 7 6 7 8 8 9 10 14 16 20 25 27 24 21 23 28 40 46 50 48 50 53 60 50 58 61 67 72 89 96 97 98 86 76 78 95 98 98 99 99 100 100 98
8 9 8 6 8 8 10 11 12 14 17 20 18 20 24 23 22 28 33 38 48 51 55 57 53 52 49 59 60 65 77 82 97 93 96 97 78 96 95 98 99 99 98 99 99
8 9 9 11 11 10 11 13 14 17 20 20 26 30 28 28 34 30 32 32 41 43 58 63 70 71 49 52 50 56 56 71 96 99 96 94 78 96 92 95 98 99 98 99 99
28 13 11 11 12 15 17 19 20 22 23 27 27 30 34 36 34 35 36 34 31 30 44 55 56 61 57 54 53 63 70 66 89 100 92 91 69 79 80 81 94 97 99 98 99
23 32 25 8 8 12 16 18 22 25 26 28 29 30 38 40 41 43 41 48 40 30 48 59 48 52 41 39 49 46 44 58 74 66 88 59 64 70 63 65 67 71 96 98 99
17 22 30 38 12 9 8 11 18 24 26 26 27 30 31 36 40 44 49 52 56 48 49 55 59 52 30 39 46 37 32 38 44 49 54 59 53 60 58 55 60 53 57 65 88
35 22 17 27 41 26 15 26 18 14 20 20 26 26 27 29 35 34 34 39 47 54 66 75 61 74 59 38 32 30 26 31 36 40 49 54 48 46 46 47 44 42 45 48 48
Wind_Speed
6 10 23 32 24 19 20 18 14 17 17 18 19 18 19 16 14 14 17 14 12 11 10 11 11 11 11 13 15 16 15 13 18 17 20 18 18 19 21 24 24 25 26 24 26
5 10 19 30 24 18 21 19 15 18 18 18 18 19 19 19 16 15 14 13 14 12 11 11 11 12 12 13 15 18 16 16 20 19 20 21 20 22 23 25 26 29 28 30 31
4 9 13 31 19 27 19 17 16 17 17 16 16 16 16 16 14 14 14 12 14 12 11 11 11 12 13 13 14 17 18 19 18 19 19 22 23 27 26 29 25 27 28 32 34
9 10 12 31 16 20 20 14 17 15 14 13 13 13 14 12 8 12 12 10 10 10 8 8 8 8 9 12 14 16 17 17 19 21 23 24 27 28 31 30 29 29 31 34 35
16 15 16 23 21 19 18 17 15 14 14 14 12 11 11 12 10 5 2 7 7 8 8 7 8 8 11 11 13 15 17 18 19 20 24 26 28 30 35 31 29 30 31 33 37
22 14 4 18 20 19 15 11 9 12 13 13 11 10 9 9 6 6 6 4 6 8 9 9 9 10 12 13 15 16 17 18 20 21 25 29 28 32 34 31 31 33 32 33 36
30 20 16 16 13 12 14 12 12 12 10 9 8 7 4 4 3 4 5 6 8 9 9 10 10 10 10 12 14 16 17 19 20 21 24 28 32 35 33 30 31 32 33 34 35
26 25 16 15 10 9 16 15 12 11 11 8 5 4 2 3 3 3 4 5 6 7 8 8 8 9 10 11 13 15 18 12 14 15 24 26 35 28 36 34 35 32 33 37 40
33 23 17 19 17 20 19 17 16 13 9 6 4 3 3 2 2 1 1 3 4 6 7 8 9 9 10 10 12 10 8 15 17 15 22 26 39 35 32 35 36 34 34 35 37
24 21 23 25 22 17 14 13 11 9 6 6 4 5 6 4 3 2 2 2 3 3 3 4 5 5 7 8 4 8 11 15 16 15 24 30 42 35 31 32 29 28 29 29 28
18 19 21 23 16 17 14 11 9 10 6 9 10 9 9 8 7 6 5 4 5 5 4 3 3 4 6 7 8 10 14 18 16 21 26 27 38 34 30 28 22 18 17 22 25
23 21 21 19 15 12 11 9 9 11 15 15 13 11 11 11 11 9 7 6 7 6 2 1 1 1 3 6 7 10 14 15 15 15 26 28 36 33 14 5 9 15 18 26 37
22 18 14 13 12 11 13 13 14 13 18 17 16 12 10 11 10 10 8 6 6 6 5 4 2 2 3 6 9 10 13 11 16 23 23 24 25 10 8 9 7 11 27 42 47
16 14 11 11 11 11 14 10 11 12 10 11 9 10 10 5 11 12 11 8 7 6 3 2 3 3 5 7 11 14 10 15 19 20 8 15 10 11 7 12 18 32 42 49 41
12 10 8 8 9 11 10 10 9 6 4 3 8 7 8 10 8 10 10 8 5 4 3 0 2 3 5 9 11 8 15 19 23 14 10 2 4 7 16 23 42 47 52 41 36
12 11 9 9 9 10 12 10 8 7 5 3 4 7 8 7 6 7 13 9 5 5 5 3 2 3 9 13 9 11 15 15 7 3 2 1 4 10 17 36 49 52 48 43 40
13 13 11 10 11 11 11 10 7 5 4 3 4 5 7 6 6 7 9 10 8 2 4 1 4 5 10 13 8 13 13 2 2 1 3 3 8 8 20 31 50 50 39 39 40
14 14 12 13 13 14 10 8 6 4 4 4 2 5 8 5 8 6 7 10 11 7 2 3 2 5 6 9 9 11 12 4 4 4 6 12 7 8 20 38 42 36 35 33 34
13 13 14 15 14 12 9 6 4 8 6 2 2 4 6 7 6 5 3 10 10 10 6 6 2 2 3 9 12 10 9 6 3 6 4 5 8 9 31 40 41 35 33 34 32
12 10 11 13 13 9 6 5 4 5 5 2 3 4 5 8 7 6 7 6 8 10 9 8 4 6 6 5 5 7 11 4 3 3 4 5 6 12 38 44 41 37 36 29 31
12 9 7 9 9 6 3 2 1 2 2 3 5 5 5 7 7 5 7 4 8 10 9 10 5 5 7 6 7 7 5 5 6 5 3 5 2 21 33 37 37 36 36 35 28
14 10 6 4 2 4 3 1 2 3 4 4 5 6 6 9 7 3 5 8 9 11 10 9 7 11 6 8 10 10 9 7 3 2 8 6 7 20 26 30 30 29 36 35 28
16 12 8 5 2 1 3 4 5 6 6 6 6 6 7 8 6 4 4 10 6 11 9 10 5 8 3 2 6 8 13 11 11 8 9 4 6 15 22 25 26 25 25 30 34
16 13 9 8 5 3 3 5 5 7 8 6 7 8 6 8 5 7 11 6 9 11 10 11 9 10 9 12 19 22 16 16 14 7 8 14 19 19 20 25 24 22 25 26 31
17 13 12 10 8 6 5 6 6 6 6 8 7 7 9 6 12 7 9 13 12 10 8 9 11 16 21 23 16 15 13 11 18 19 14 14 23 16 20 22 24 25 26 24 23
17 16 14 11 9 9 7 6 6 6 8 8 9 11 11 11 10 16 15 12 8 8 10 15 11 22 27 7 11 21 13 12 14 15 22 19 20 16 18 19 18 19 18 22 25
16 15 14 13 10 9 8 9 8 7 6 7 9 11 12 13 14 15 16 17 18 19 19 17 11 15 9 11 22 10 7 6 11 13 15 14 13 14 16 17 17 17 18 19 20
Wind_Direction
118 167 198 188 180 186 204 197 197 188 190 198 204 207 212 215 224 231 238 236 238 247 239 231 241 239 227 221 222 222 223 229 233 240 246 252 253 253 246 244 245 244 245 248 244
149 153 180 190 179 197 176 179 189 191 186 191 199 201 207 214 215 233 244 249 247 245 250 246 238 245 241 228 224 222 228 239 241 247 252 257 258 258 252 247 247 249 247 248 249
114 150 178 184 150 171 183 191 188 185 184 187 194 202 203 209 219 229 238 243 254 249 249 254 252 243 247 244 237 238 234 245 249 253 256 259 258 260 260 255 252 252 254 251 247
125 119 159 186 128 143 158 168 175 177 182 186 187 197 211 213 221 242 243 246 255 263 252 246 248 254 252 249 252 249 253 254 260 261 263 264 264 264 265 268 261 256 253 255 256
116 111 140 149 156 163 139 158 158 172 180 188 191 203 210 211 207 205 229 231 245 251 258 260 262 263 260 260 258 261 267 268 267 267 269 272 273 277 268 271 272 270 264 259 257
100 103 130 157 119 165 154 146 159 166 172 179 179 186 197 216 229 238 232 234 239 245 251 253 253 254 259 262 262 267 269 271 272 275 276 273 268 267 273 278 273 273 271 267 265
95 101 121 153 130 93 184 171 147 149 160 157 152 152 180 221 212 263 260 255 256 254 250 253 256 252 256 264 264 268 277 281 281 282 281 280 275 274 275 279 280 276 275 272 267
85 92 100 134 162 126 132 138 142 141 135 132 138 151 168 151 174 217 260 273 273 272 274 272 271 272 272 271 277 287 286 283 282 289 289 284 272 278 278 286 283 285 282 276 274
87 87 88 120 125 125 125 130 131 135 133 127 122 105 103 94 93 76 254 271 276 281 282 283 284 282 283 287 294 282 273 284 297 291 286 281 278 283 287 293 288 288 281 277 274
83 73 95 116 111 118 127 122 135 133 120 107 103 102 100 75 57 50 31 355 317 303 297 279 272 272 273 275 255 273 290 292 297 297 288 286 282 292 297 292 291 287 281 277 278
56 69 90 125 100 92 99 114 121 118 108 97 83 83 87 77 56 43 20 1 338 311 289 269 259 258 269 272 283 292 294 299 305 304 294 296 287 300 303 294 295 280 270 281 287
71 82 93 101 102 91 86 94 99 103 97 88 84 82 82 78 62 47 42 42 29 31 356 252 249 295 305 305 309 308 306 311 315 303 304 306 297 306 311 325 307 294 292 296 295
65 78 96 94 96 101 101 101 101 105 84 83 84 77 77 71 58 43 30 22 19 31 35 76 63 15 340 325 318 312 302 309 305 309 314 315 308 345 326 347 333 301 300 305 302
48 54 68 87 102 106 113 102 101 99 85 56 57 49 48 66 40 33 36 40 46 38 64 69 21 2 349 336 320 313 304 311 313 317 296 313 292 339 352 326 319 320 313 314 304
45 50 64 95 108 119 125 122 119 106 83 46 62 64 40 43 33 28 24 31 59 54 58 208 20 5 358 328 317 296 316 310 305 292 288 290 268 294 337 330 324 320 319 316 312
59 63 81 98 109 117 119 114 97 81 59 94 56 33 31 33 39 37 27 34 38 77 46 105 45 52 13 355 342 332 325 316 304 313 234 162 9 304 344 336 322 325 325 322 322
67 69 80 104 118 122 121 109 88 69 129 83 51 42 40 59 37 36 40 50 51 81 32 102 36 7 7 2 350 353 354 304 245 320 5 297 316 293 331 331 327 325 328 327 324
60 71 85 106 120 121 115 100 72 122 133 139 76 57 46 39 27 36 44 44 43 42 58 41 244 19 14 14 356 8 33 37 311 330 320 296 236 331 340 331 334 336 332 332 325
58 78 95 113 121 122 102 68 120 141 139 104 31 47 31 17 16 17 36 32 26 27 17 355 303 285 360 16 15 356 5 334 270 300 293 256 298 338 336 349 352 347 341 344 333
55 77 104 127 137 134 92 90 122 138 139 51 52 38 21 13 3 4 11 19 14 13 14 351 316 256 267 299 345 5 355 356 318 290 287 268 284 319 351 356 2 2 355 343 346
44 67 107 138 162 158 123 70 113 128 27 2 357 351 352 356 354 359 9 354 1 1 358 347 297 312 282 251 268 303 335 348 293 253 294 305 325 341 357 0 7 12 12 5 1
33 56 77 124 158 218 236 262 281 300 315 317 320 334 337 341 336 327 350 355 346 350 348 344 308 306 283 264 266 283 297 313 289 302 274 262 281 347 6 8 13 16 22 25 18
23 33 42 43 43 276 263 278 291 297 300 298 308 316 323 331 331 306 317 326 323 340 331 339 322 315 296 285 306 290 299 302 307 297 256 290 284 4 16 15 16 17 23 32 37
17 22 28 29 22 352 324 303 301 302 306 306 304 306 310 319 306 296 307 309 315 310 311 317 304 283 266 288 290 289 285 285 284 262 285 261 320 357 8 14 21 21 25 33 34
16 16 15 14 17 0 335 311 307 305 301 313 311 308 311 313 311 300 310 316 317 306 291 303 302 304 306 309 284 287 292 269 262 271 261 284 306 339 351 358 5 11 8 15 27
11 10 5 3 3 6 1 344 327 317 310 308 305 306 308 307 294 296 301 306 303 300 302 303 297 313 317 293 299 303 288 267 266 263 266 286 308 310 336 346 349 2 4 7 16
5 4 4 357 353 352 351 357 347 340 333 316 307 306 304 304 299 298 294 288 283 284 286 293 298 320 283 303 308 291 217 259 276 281 285 278 307 318 330 338 346 352 354 2 8